Location: Detroit
(42.3310°N, 83.0460°W)
Time: 07:54:32
(UTC-04:00)

Explorer 11/Cluster Stage 4 - Pass Details

Date: 09 February 2023
Orbit: 466 x 1241 km, 28.8° (Epoch: 02 April)

Event Time Altitude Azimuth Distance (km) Brightness Sun altitude
Exits shadow 03:39:48 15° 126° (SE) 2,641 9.4 -43.7°
Drops below altitude 10° 03:41:24 10° 117° (ESE) 3,042 9.9 -43.4°
Sets 03:45:01 0° 105° (ESE) 4,090 10.8 -42.8°
